Theta_e
322 322 327 328 327 328 328 330 330 332 332 332 332 331 331 331 332 333 333 333 332 330 330 330 328 328 328 327 326 325 323 323 321 321 320 319 319 319 320 320 320 320 322 328 332 330 329 331 333 334 333 329 325 324 324 324 324 323 324 323 324 323 324 323 323 322 322 327 331 332 332 332 331 329 326 323 328 331 329 330 331 332 332 330 330
320 320 325 327 328 327 328 329 329 330 331 331 331 331 331 330 331 331 332 330 327 326 326 325 325 325 325 325 324 323 322 322 321 321 320 321 321 322 322 322 323 322 324 329 330 329 330 332 333 333 332 330 328 327 326 325 325 325 325 325 325 325 325 325 324 324 323 323 326 329 331 331 330 330 331 329 328 329 330 330 329 329 331 332 332
318 319 324 327 327 327 327 328 328 328 328 329 329 330 330 329 330 330 329 326 324 324 323 322 322 323 322 323 322 322 322 321 321 321 322 322 324 324 324 324 324 323 326 329 330 331 332 333 333 332 331 331 330 329 327 326 326 325 326 326 326 326 326 326 326 325 324 324 326 329 332 333 331 329 330 332 331 330 329 328 328 328 328 329 331
318 318 323 326 327 327 327 327 327 328 327 328 328 328 327 327 328 327 327 324 324 323 322 322 322 321 321 322 321 321 321 321 321 322 323 323 325 325 324 324 324 326 329 331 332 332 333 333 332 330 330 332 331 329 326 325 325 324 324 324 325 326 326 326 326 326 326 325 328 330 333 334 333 330 328 330 332 331 329 327 325 325 325 324 327
319 318 321 324 327 327 327 327 327 327 326 326 327 326 325 326 326 325 325 324 324 323 322 322 321 321 321 321 321 321 321 322 324 326 327 326 326 325 324 324 326 328 330 332 334 333 332 331 329 330 330 332 332 330 327 325 324 324 324 323 322 324 324 324 324 325 326 327 332 333 333 333 334 333 332 331 332 332 332 330 329 327 324 321 321
320 319 320 322 325 326 326 326 326 327 327 326 326 326 325 325 325 325 325 324 324 323 322 321 321 321 321 322 322 322 324 327 330 331 331 329 327 326 325 325 327 330 331 333 334 334 331 327 326 329 331 331 332 332 329 327 326 325 325 323 320 318 320 322 323 324 325 326 331 333 333 333 333 334 334 333 333 334 334 333 333 332 329 325 321
320 320 320 320 323 324 325 326 325 326 327 327 327 327 326 326 326 325 325 325 324 323 322 322 322 322 321 323 324 325 329 331 332 332 332 329 327 327 326 326 328 331 331 332 334 333 329 325 324 326 329 329 330 331 332 330 328 327 327 323 317 314 314 316 319 321 323 325 328 332 333 332 330 332 333 332 332 334 334 333 332 332 332 329 327
320 321 320 319 319 321 324 324 324 325 327 328 327 327 328 328 328 327 327 326 326 324 323 323 323 323 322 323 327 329 331 332 332 333 332 328 326 327 328 329 330 332 332 332 333 330 326 324 323 322 324 326 327 328 330 330 330 328 325 319 314 312 312 312 314 315 318 321 325 330 332 331 329 330 332 332 331 333 334 332 331 332 333 331 330
320 321 321 319 318 318 320 322 323 323 325 327 327 328 328 328 329 329 329 328 327 326 325 324 324 324 325 325 328 330 331 332 332 333 332 328 326 326 328 331 332 332 333 332 331 327 324 322 319 318 317 320 324 324 323 323 323 322 318 314 311 311 311 310 311 311 313 314 318 326 330 331 330 328 330 332 331 332 333 331 330 331 331 330 330
321 320 321 320 318 317 318 319 320 320 322 324 326 327 328 328 329 330 330 329 328 327 326 325 324 325 327 329 329 329 331 332 333 333 330 326 326 326 327 330 331 332 333 332 329 325 321 317 314 313 313 315 317 317 315 314 314 313 311 309 308 307 307 308 308 309 310 310 312 320 328 330 331 329 328 332 333 331 331 330 328 329 329 328 328
321 320 320 320 319 318 317 317 317 316 317 318 320 323 325 326 328 329 329 329 329 328 328 326 325 326 329 332 332 331 330 332 333 332 327 324 325 326 327 328 329 330 330 330 328 323 318 315 312 311 312 312 312 312 312 311 310 308 306 305 305 305 305 305 305 306 307 309 309 314 323 327 328 328 325 328 332 331 329 328 327 327 329 329 327
322 321 320 321 320 318 317 316 316 315 314 314 315 317 320 322 324 326 328 328 328 328 328 327 326 326 329 332 334 333 331 331 331 328 324 324 325 325 327 328 327 326 325 326 326 323 319 315 311 310 310 311 310 309 308 307 306 305 304 304 304 305 304 304 304 305 305 306 307 310 316 321 323 324 323 323 325 327 326 325 325 328 329 328 327
321 321 321 321 321 319 318 317 315 315 314 314 313 314 316 318 320 322 324 325 326 327 325 325 325 325 329 333 334 333 332 331 330 326 323 324 323 321 324 326 327 325 322 320 321 320 318 314 308 307 307 307 307 306 305 304 304 304 304 305 305 305 305 305 304 304 304 304 305 307 310 315 319 321 322 320 317 318 318 319 322 326 326 326 326
319 321 322 322 322 320 319 317 316 314 314 314 314 314 314 315 316 317 319 321 322 322 322 323 324 325 330 334 334 332 332 331 330 326 322 321 319 315 317 320 322 323 319 314 314 314 315 311 305 305 305 305 304 304 304 304 304 304 305 305 305 305 305 305 305 305 305 304 304 304 306 309 313 316 316 315 312 310 311 313 316 320 321 322 323
317 320 321 322 322 321 320 318 316 314 314 314 314 314 314 314 314 314 315 317 317 318 320 322 323 325 330 333 333 332 331 331 330 326 320 317 315 313 312 313 315 315 313 310 309 309 308 306 304 304 304 304 304 303 304 304 305 305 306 306 307 307 307 306 306 306 305 305 304 304 304 305 307 309 309 308 307 307 307 308 310 312 314 316 317
316 318 320 320 321 321 321 319 318 315 314 314 314 314 314 314 313 313 314 315 316 316 318 321 321 324 330 332 332 332 330 329 327 323 317 315 314 312 310 310 310 309 308 307 306 305 304 304 304 304 304 304 303 304 304 305 306 307 307 308 308 307 308 308 307 307 306 306 306 306 305 304 304 305 304 304 305 305 305 305 305 306 308 310 312
316 317 318 319 319 320 321 321 319 317 315 314 314 313 314 314 314 314 314 315 315 315 317 320 320 323 328 329 329 329 327 323 320 317 315 315 314 311 309 308 307 306 306 306 305 305 304 304 304 304 304 304 304 305 306 307 307 307 307 307 308 308 308 308 308 307 307 307 307 307 306 305 304 304 304 304 304 304 304 304 303 304 304 305 306
316 316 317 317 318 318 320 321 320 318 317 315 314 314 313 313 314 314 314 316 316 315 315 318 320 322 324 325 324 324 321 317 314 313 313 313 312 310 308 306 305 305 305 305 305 305 304 304 304 303 303 304 305 306 307 307 307 307 307 307 307 307 308 307 308 307 307 308 308 307 306 306 305 305 304 304 304 304 303 303 303 303 303 303 303
316 316 316 317 317 317 317 319 320 320 318 317 316 315 314 313 313 314 314 316 317 315 315 318 321 322 321 319 319 317 316 315 313 312 311 311 310 308 306 305 305 305 305 305 305 304 304 304 303 303 303 305 306 306 306 306 306 306 306 307 307 307 307 307 307 307 307 308 307 307 306 306 305 305 304 304 303 303 303 303 303 303 303 303 303
316 316 316 316 316 317 317 317 318 319 319 319 318 316 315 314 314 314 314 315 317 316 317 320 321 322 321 318 316 316 315 315 313 311 310 311 310 307 304 304 305 305 305 305 305 304 304 304 303 303 304 306 306 306 306 306 306 306 306 306 306 307 307 307 307 307 307 307 307 307 307 306 306 305 304 304 304 303 303 303 303 303 303 303 303
316 316 316 316 316 316 316 316 316 317 318 319 318 317 316 315 314 314 314 314 315 316 317 320 321 321 321 319 317 317 316 315 313 311 311 311 309 306 304 304 305 305 305 305 305 305 304 304 304 304 305 306 306 306 306 306 306 306 306 306 306 307 307 307 307 307 307 307 307 307 307 306 306 306 305 305 304 304 304 303 303 303 302 302 302
315 315 315 315 316 316 316 316 316 316 317 318 318 318 317 316 315 314 314 313 313 313 314 317 318 318 318 318 317 317 316 314 313 311 311 310 309 306 304 304 305 305 305 305 305 305 304 304 304 305 306 306 306 306 306 306 306 306 306 306 306 306 307 307 307 307 307 307 307 307 306 306 306 306 306 305 305 304 303 303 303 303 302 302 302
315 315 315 315 315 315 316 316 316 316 316 316 317 318 317 316 316 315 315 314 312 311 311 313 314 314 315 315 316 316 314 312 312 311 311 310 309 307 304 304 305 305 305 305 305 304 304 304 304 305 306 306 306 306 306 306 306 306 306 306 306 306 306 307 307 307 307 307 307 307 307 307 306 306 306 306 305 304 303 303 303 302 302 303 303
314 315 315 315 315 315 315 316 316 316 316 316 316 317 317 317 316 315 315 315 313 311 311 311 312 312 312 313 313 314 313 312 311 310 310 309 309 307 305 304 304 305 305 305 305 304 305 305 305 306 306 306 306 305 305 306 306 306 306 306 306 306 306 306 306 306 306 306 307 306 307 306 306 306 306 306 306 305 304 303 303 303 303 303 303
315 315 314 314 315 315 315 315 316 316 316 316 316 316 317 317 316 316 315 315 314 312 311 311 311 312 312 312 312 313 313 312 310 309 309 309 308 306 305 305 305 305 305 305 304 305 305 305 305 306 306 306 306 305 305 306 306 306 306 306 306 306 306 306 306 306 306 306 306 306 306 306 306 306 306 306 305 305 304 303 303 303 303 304 303
315 315 314 314 314 314 315 314 315 315 316 316 316 316 316 317 316 316 316 316 315 314 312 312 311 312 312 312 312 312 312 312 311 310 310 309 309 307 305 305 305 305 305 305 305 305 305 305 305 305 306 306 305 305 306 306 306 306 306 306 306 306 306 305 306 306 305 305 305 306 306 306 306 306 306 306 305 305 304 304 304 304 305 306 305
315 314 314 314 314 314 314 314 315 315 315 316 316 317 317 317 317 317 317 317 316 315 314 313 312 312 312 312 313 313 313 313 312 311 310 309 309 307 305 305 305 306 305 305 305 305 305 304 305 305 305 305 305 305 306 306 306 306 306 306 306 306 306 306 306 306 305 305 305 305 305 306 306 306 306 305 305 304 304 304 304 305 307 308 305
315 314 314 314 314 314 314 314 314 314 315 315 316 316 317 317 317 318 318 317 317 317 316 315 313 312 312 312 312 313 313 314 313 312 311 310 309 307 305 305 306 306 305 305 305 305 304 304 304 305 305 305 305 305 306 306 306 306 306 306 306 306 306 306 306 306 305 305 305 305 305 305 305 305 305 305 305 303 304 303 303 307 309 309 305
315 314 314 314 314 314 314 314 314 314 315 314 315 315 316 317 317 317 318 317 318 318 317 316 315 314 313 312 312 313 313 313 313 313 312 311 309 307 305 305 305 306 306 304 305 305 304 304 304 304 305 305 305 305 305 306 306 306 306 306 306 306 306 306 306 306 306 305 305 305 305 305 305 305 305 305 305 303 303 301 301 305 307 307 305
314 314 314 314 314 314 314 314 314 314 314 314 314 315 315 316 316 317 317 317 318 318 318 318 317 316 315 314 313 313 313 313 313 313 313 312 309 307 306 305 305 306 306 305 305 306 305 304 304 304 305 305 304 304 305 305 305 305 305 305 306 306 306 306 306 306 306 305 305 305 304 304 304 305 305 304 304 303 303 301 302 305 308 309 309
314 314 314 314 314 314 314 314 314 313 314 314 314 314 314 315 315 316 317 317 318 318 319 319 319 318 318 317 315 314 314 313 313 313 313 312 310 308 306 305 305 305 306 305 305 306 305 304 303 304 304 304 304 304 304 305 305 305 304 305 305 305 305 305 305 305 305 305 304 304 304 304 304 304 304 304 304 303 303 302 303 308 312 313 312
315 315 315 315 315 314 314 314 314 313 313 314 314 314 314 314 314 315 316 316 317 318 319 320 320 319 319 318 317 316 315 314 313 313 313 313 311 308 306 305 305 305 306 306 305 306 305 303 303 303 303 304 304 304 304 304 304 304 304 304 304 304 305 304 305 305 305 305 304 304 304 303 303 303 303 304 303 302 302 302 302 304 309 312 313
315 315 314 315 315 315 314 314 313 313 313 313 314 314 314 314 314 314 315 316 317 317 318 319 319 319 319 319 318 317 317 316 314 314 314 313 311 309 307 305 305 305 305 305 305 305 304 303 303 303 303 304 304 304 304 304 304 304 303 303 304 304 304 304 304 304 304 304 304 304 304 303 303 303 303 303 303 302 302 301 301 300 302 309 313
315 314 314 314 315 315 314 314 314 314 314 314 314 314 314 314 315 315 315 316 316 317 317 318 319 319 319 319 319 318 317 317 315 314 314 313 311 309 308 307 305 304 304 305 305 305 304 303 303 303 303 303 304 304 303 304 304 304 303 303 303 303 303 303 303 303 304 304 304 304 304 304 303 303 303 303 303 302 301 300 299 298 299 304 308
314 313 313 313 314 314 314 314 315 315 314 314 315 315 315 315 316 317 317 318 318 319 319 319 319 319 320 320 319 318 318 318 317 316 315 313 312 311 309 308 306 304 304 304 305 305 304 303 303 303 303 302 303 303 303 303 303 303 303 302 303 303 303 303 303 303 303 303 303 304 304 304 304 303 303 303 303 302 301 300 299 298 298 299 301
313 313 313 313 313 313 314 314 314 314 314 314 315 316 317 317 318 319 319 320 321 321 321 321 321 321 321 321 320 320 319 319 318 317 316 315 313 312 310 309 307 305 304 304 304 304 304 303 303 302 302 302 303 303 303 303 303 303 303 302 302 302 302 302 302 302 303 303 303 303 303 304 304 303 303 303 302 302 301 300 299 298 297 297 298
313 312 312 312 313 313 314 314 313 313 313 313 314 316 317 318 319 320 320 321 322 323 323 322 322 323 322 322 321 321 321 320 319 318 317 316 315 313 312 310 309 307 305 304 303 303 304 303 302 302 302 302 302 302 303 303 303 303 303 302 302 302 302 302 302 302 302 302 302 303 303 303 303 303 303 303 302 301 301 300 299 298 297 297 296
311 311 311 312 312 313 314 314 313 311 311 312 312 314 316 317 318 320 321 322 322 323 323 323 324 324 324 323 323 322 322 321 320 319 318 318 317 315 314 312 309 308 306 304 303 303 303 303 302 302 302 301 301 302 302 303 303 303 303 302 302 302 302 302 302 302 301 302 302 302 302 302 302 302 303 303 302 301 300 299 298 297 297 296 296
310 310 310 311 311 311 312 312 310 310 310 310 311 312 313 315 316 317 318 320 321 322 323 323 324 324 324 323 323 323 323 322 321 320 320 319 318 317 316 314 311 308 307 305 303 302 302 302 302 302 301 301 301 301 301 302 302 302 302 302 302 301 301 302 302 301 301 301 302 302 302 302 302 302 302 302 302 301 300 299 298 297 296 296 295
309 309 309 309 309 310 310 309 309 309 309 309 309 310 310 311 312 314 315 317 319 320 321 322 322 323 323 323 323 323 323 322 322 321 321 320 319 319 318 316 313 310 308 306 304 303 302 302 302 302 301 301 300 300 300 301 302 302 301 301 301 301 301 301 301 301 301 301 301 301 301 301 301 301 301 301 302 301 300 299 298 297 296 295 295
309 309 309 309 309 310 310 310 308 309 310 309 309 308 309 309 310 311 312 313 314 315 317 318 319 320 321 321 322 322 322 321 321 321 321 320 320 320 319 318 316 313 310 308 306 304 302 302 302 301 301 301 300 300 300 301 301 301 301 301 301 301 301 301 301 300 301 301 301 301 300 301 301 301 301 301 301 301 300 299 299 298 296 296 295
309 309 309 309 308 309 310 310 309 309 310 311 310 309 309 310 311 313 313 313 314 314 314 314 315 316 317 318 318 318 318 318 318 319 319 319 320 320 320 319 318 316 313 310 307 305 302 301 301 301 301 300 300 300 300 301 301 301 301 301 301 300 300 300 300 300 300 300 301 301 300 300 300 300 301 301 301 300 300 299 299 298 297 295 295
309 309 309 309 308 308 309 308 308 309 309 310 310 309 310 310 311 313 314 314 315 315 314 313 312 312 313 313 314 314 314 314 315 316 316 317 318 318 319 319 319 318 316 313 310 306 304 302 301 300 300 300 299 299 300 300 300 301 300 300 300 300 299 300 300 300 300 300 300 300 300 300 300 300 300 301 301 300 300 299 299 298 297 296 296
309 309 309 309 308 308 308 308 308 308 307 307 308 308 308 307 307 308 309 310 311 310 310 310 309 309 309 310 310 310 310 311 311 312 313 314 315 316 317 317 318 318 318 316 314 310 307 304 302 301 300 299 299 299 299 299 299 300 300 299 299 299 299 300 301 300 300 300 300 300 300 300 300 300 300 300 301 300 300 299 298 297 297 296 297
308 308 308 308 308 308 308 308 308 308 308 307 307 307 307 307 306 306 306 307 307 307 308 308 308 307 307 307 307 307 307 307 307 308 309 310 311 312 314 315 316 317 317 317 316 314 310 307 304 302 300 300 299 299 299 299 299 299 300 299 299 299 299 300 301 300 300 300 300 300 300 300 300 300 300 300 300 301 300 299 299 298 297 297 297
308 307 307 307 307 308 307 308 308 307 307 307 307 308 308 307 307 306 306 306 307 308 308 308 307 306 306 305 305 305 305 305 305 305 305 306 307 308 310 312 314 315 315 316 316 315 313 311 307 303 301 300 299 299 299 299 299 299 299 299 299 300 300 300 300 300 300 300 300 300 300 300 300 300 300 300 300 301 300 299 299 298 297 297 298
308 307 308 307 308 308 308 308 308 307 307 307 307 307 308 307 307 306 306 306 306 307 307 307 306 305 305 304 304 304 305 305 305 305 305 305 305 305 307 308 310 312 313 313 314 314 314 313 310 306 302 300 299 298 298 299 299 298 298 299 299 299 300 300 300 300 300 300 300 301 301 300 300 300 300 300 300 300 300 299 299 298 297 297 298
307 308 308 308 307 308 307 307 307 307 307 307 307 308 308 307 307 306 306 305 305 305 305 305 305 304 304 304 304 304 304 304 304 304 304 304 304 304 304 305 306 308 310 311 312 312 313 312 310 307 303 301 299 298 298 298 298 298 298 299 299 299 299 299 300 300 300 300 300 300 301 300 300 300 300 300 300 300 300 299 299 298 298 298 298
306 306 306 306 306 306 306 306 307 307 307 307 307 308 308 307 307 306 306 305 305 305 304 304 304 304 304 304 303 303 304 304 304 304 303 303 303 303 303 303 304 305 306 307 309 310 311 310 309 307 304 302 299 298 297 298 298 298 298 298 298 298 298 299 299 300 300 300 300 300 300 300 300 300 300 299 299 300 299 299 299 298 298 298 297
305 305 305 305 305 305 306 307 307 306 306 306 307 307 307 307 307 306 306 306 305 305 304 304 304 303 303 303 303 303 303 303 303 303 303 303 302 302 302 303 303 302 303 304 305 307 308 309 308 307 306 303 301 299 297 297 297 297 298 298 298 298 298 299 299 299 300 300 300 300 300 300 300 300 300 299 299 299 299 299 299 298 298 298 297
304 305 305 304 305 305 306 306 306 306 306 306 306 306 306 306 306 305 305 306 305 305 305 305 304 303 303 303 302 302 302 302 302 302 302 302 302 302 302 302 302 302 301 302 302 303 304 306 307 307 306 304 302 300 298 297 297 297 297 297 297 297 298 298 299 299 299 300 300 300 300 299 300 300 300 299 299 299 298 298 298 298 298 298 297
Wind_Speed
7 8 11 15 16 16 15 15 15 15 15 16 16 16 15 14 13 11 9 7 6 5 5 5 5 5 4 5 4 5 5 5 4 3 3 2 2 2 2 3 3 4 6 6 5 4 5 4 3 3 3 4 5 4 4 5 5 6 6 7 7 8 8 9 10 10 10 10 9 8 7 9 8 8 8 8 7 6 6 7 5 5 4 4 5
6 7 11 14 16 16 15 15 15 15 15 16 16 15 15 14 13 10 9 8 7 6 6 6 5 5 4 4 4 4 5 4 4 3 3 2 1 1 1 2 2 3 5 4 3 2 2 2 1 1 1 2 4 4 4 4 4 5 5 5 6 6 7 7 8 8 8 8 8 7 7 8 8 7 7 7 7 6 6 7 6 5 4 4 4
6 6 11 13 15 17 16 15 15 15 15 15 15 14 14 13 12 10 10 9 9 8 8 7 6 6 5 4 4 4 4 3 4 4 3 3 3 2 1 1 1 3 4 3 2 2 1 2 2 2 1 1 2 3 3 3 4 4 4 4 4 5 5 6 6 7 7 7 6 6 7 7 7 7 7 6 6 5 5 5 5 4 4 4 3
6 6 11 14 15 17 16 16 15 16 15 15 15 14 13 12 11 11 11 11 11 10 9 9 8 7 6 5 4 4 4 4 4 4 4 4 4 3 2 1 1 2 3 2 2 2 2 2 2 3 3 2 2 1 1 2 2 3 3 4 3 3 3 3 4 5 6 6 6 6 6 7 6 6 6 6 5 4 4 5 4 4 3 3 3
6 6 10 14 15 17 17 17 16 16 16 16 15 15 14 13 12 12 12 12 12 11 10 10 9 8 7 6 5 5 5 5 4 4 5 5 4 3 2 1 1 2 2 2 3 3 2 3 3 3 3 3 2 1 1 1 0 2 3 5 4 3 2 1 1 3 4 6 6 6 5 5 5 5 5 5 5 4 3 3 4 4 4 3 3
7 7 8 14 16 17 17 17 17 16 16 16 16 15 15 14 13 13 14 13 12 11 11 10 9 8 7 7 6 5 5 5 5 5 5 4 4 3 3 2 2 3 3 3 3 4 4 5 5 3 3 3 2 2 3 4 5 4 5 7 7 6 5 4 2 1 3 5 7 6 4 4 4 3 3 4 5 4 3 3 3 3 3 3 3
7 6 6 12 15 17 18 18 18 17 17 17 17 16 16 15 15 15 15 14 13 12 12 11 9 8 7 7 6 5 5 5 6 6 6 5 4 4 4 3 3 4 4 4 5 6 6 8 7 5 5 4 3 4 5 7 8 9 9 10 10 9 8 6 5 4 4 5 6 6 2 5 3 2 2 3 3 3 3 3 3 3 3 2 2
9 7 6 10 14 15 17 18 18 18 18 18 18 17 17 17 17 17 16 15 15 13 13 11 9 8 8 7 6 6 7 7 7 8 8 7 5 6 5 4 5 5 6 7 8 9 10 10 10 7 6 6 5 5 7 8 10 11 12 12 12 10 9 8 7 7 7 6 6 7 5 4 5 3 1 3 3 3 3 4 4 3 2 2 2
11 10 7 9 13 14 16 17 18 18 18 19 18 18 18 18 18 17 17 16 16 14 13 11 10 9 8 7 7 8 8 9 9 10 11 8 7 7 7 6 7 6 7 9 11 13 13 12 11 9 8 7 8 8 9 10 12 12 13 13 11 10 9 8 8 8 9 8 7 7 6 5 6 5 3 4 4 5 5 5 4 2 3 4 4
11 12 10 10 11 14 15 17 18 18 18 19 19 19 19 19 18 18 17 17 16 15 14 11 10 9 8 8 8 9 10 11 11 13 13 10 8 7 7 8 9 9 8 10 12 14 13 12 10 9 9 9 10 10 10 11 11 11 11 11 9 9 8 8 8 9 9 9 7 7 6 7 8 7 7 6 4 6 7 7 6 5 6 7 6
12 12 13 12 11 13 15 17 17 18 18 18 19 19 19 19 19 19 19 18 17 16 14 13 12 10 9 10 10 11 12 13 14 15 13 10 10 9 9 10 11 11 11 11 11 12 12 10 9 8 8 8 9 9 9 9 9 9 8 7 6 5 5 5 6 8 8 7 7 9 10 10 10 10 10 10 8 8 9 9 8 6 5 5 5
11 13 15 14 13 13 15 17 17 18 18 18 18 19 19 19 19 19 19 19 18 17 15 14 13 12 11 12 12 13 14 15 16 16 14 12 12 12 11 13 13 13 14 13 12 12 10 10 9 7 7 8 8 7 7 7 6 5 4 4 3 3 3 3 4 4 5 6 8 11 13 14 13 12 12 12 13 13 11 9 6 4 3 5 6
11 13 16 16 14 14 15 17 18 19 19 19 18 19 19 19 19 19 19 19 18 18 17 16 15 14 14 15 15 15 16 17 18 16 15 14 15 14 13 15 15 15 15 15 15 12 9 9 8 6 7 6 6 5 4 4 3 3 3 3 3 3 3 3 3 3 3 5 8 12 14 15 15 13 13 12 13 14 13 10 7 6 6 6 5
11 12 16 16 15 15 15 17 19 20 20 20 19 19 19 19 19 19 19 19 19 18 18 18 17 16 17 17 16 17 18 19 19 17 15 16 15 14 14 15 17 17 16 14 13 12 9 8 7 6 6 5 3 3 2 2 2 2 2 3 3 3 4 4 4 4 4 5 7 10 12 13 14 14 14 13 12 11 10 9 9 9 9 8 7
11 12 15 16 16 16 16 17 18 21 21 21 21 20 20 19 19 19 19 20 19 19 19 20 19 19 19 19 18 18 20 20 19 18 16 16 15 13 12 12 14 15 14 12 11 10 9 8 6 5 4 3 3 3 3 3 3 3 3 3 3 3 4 4 5 5 5 6 7 8 8 10 12 13 13 13 11 9 7 7 8 9 10 11 11
11 12 15 16 16 16 16 17 18 21 22 22 22 21 21 20 20 19 19 19 19 19 19 20 20 21 21 20 20 20 21 21 20 19 17 16 14 13 11 11 13 13 12 11 9 8 8 7 6 5 4 4 3 3 3 3 3 3 3 3 3 4 4 5 5 5 6 7 9 8 7 7 9 10 10 10 9 7 6 6 6 7 9 10 10
11 12 14 16 17 17 17 17 18 21 22 23 23 22 22 21 21 21 20 20 19 19 19 20 20 21 22 21 21 22 22 21 20 19 18 15 13 13 12 11 12 12 11 10 8 8 8 8 7 6 5 5 5 4 4 4 3 3 3 3 4 4 5 5 5 6 6 8 9 7 6 7 8 8 8 8 9 8 6 6 6 6 6 7 7
11 12 14 16 17 18 18 19 19 21 22 23 24 23 22 22 22 22 21 21 21 20 20 22 21 21 22 22 22 22 22 21 20 19 17 14 12 12 12 12 12 11 10 9 9 9 9 9 8 7 7 6 6 6 5 4 4 4 4 4 4 5 5 6 6 6 7 8 7 6 7 8 8 8 8 8 8 8 7 7 7 7 7 6 6
12 13 14 16 18 19 19 19 20 21 22 23 24 24 23 23 23 23 23 22 22 21 22 23 22 22 21 22 22 21 22 21 20 19 15 13 12 11 11 12 11 11 10 9 9 9 9 9 8 7 7 7 7 6 5 5 4 4 4 4 4 5 5 6 6 7 8 8 6 6 7 7 7 7 7 7 7 8 8 7 7 7 7 8 7
15 15 15 16 18 20 21 20 21 22 23 23 24 24 24 24 23 23 23 23 23 23 23 23 23 23 23 22 22 22 22 22 21 19 16 13 13 12 11 12 12 11 10 10 10 10 9 9 8 8 8 8 7 6 5 5 5 5 5 5 5 5 5 6 6 7 8 7 6 7 7 7 7 7 7 7 7 7 8 8 8 8 8 8 8
17 17 16 17 18 20 22 22 22 22 23 24 24 25 24 25 25 24 24 24 24 24 25 25 24 24 24 24 23 23 23 23 22 20 18 15 14 13 12 13 13 12 11 11 11 11 10 10 10 9 9 9 8 7 6 6 6 6 6 5 5 6 6 6 7 7 8 7 7 7 7 7 8 8 8 7 7 7 7 8 8 8 8 8 8
19 19 18 18 19 20 21 23 23 22 23 24 25 25 25 26 26 26 26 26 26 26 26 26 26 26 26 26 25 24 24 23 22 21 19 17 16 15 14 14 14 13 13 13 12 12 12 12 11 11 10 10 9 8 7 7 7 7 7 6 6 7 7 7 8 8 8 7 8 8 8 8 8 9 9 8 7 7 7 7 7 8 8 8 8
20 19 19 19 20 21 22 23 24 24 24 25 26 26 26 26 27 27 28 27 28 27 27 27 27 27 27 26 26 25 24 23 22 21 19 19 18 16 15 15 15 15 14 15 14 14 13 13 13 12 12 11 10 9 8 8 7 7 7 7 7 7 8 8 8 8 8 8 9 9 9 9 9 10 10 9 8 7 7 7 7 7 7 7 7
19 18 18 19 21 21 22 22 24 25 26 26 27 27 27 27 27 28 29 29 30 29 29 29 29 28 27 27 26 26 25 24 23 22 21 20 19 18 17 17 17 17 16 17 16 16 15 15 14 13 13 12 11 10 9 8 8 8 7 7 7 7 8 8 8 8 8 8 8 9 9 9 9 10 11 11 10 9 8 7 7 7 6 6 6
21 20 19 19 19 21 22 23 24 26 27 28 28 28 28 28 28 27 28 29 31 31 31 31 30 30 29 28 27 27 26 26 25 23 22 21 19 19 19 19 19 19 18 18 18 18 17 16 15 15 14 13 12 11 10 9 8 8 7 7 7 7 7 8 8 7 7 8 8 8 9 9 9 9 10 11 11 10 9 8 8 7 7 6 5
21 22 21 19 18 19 21 22 24 26 28 28 29 29 29 30 29 28 28 29 30 32 32 33 32 31 30 29 29 28 28 28 27 26 24 23 21 21 21 21 21 20 20 20 20 19 18 17 16 16 15 14 13 12 11 10 9 8 7 7 7 7 7 7 8 7 7 8 8 8 8 8 8 9 9 10 10 10 9 8 7 7 6 6 4
19 21 21 20 19 18 19 22 24 26 28 29 30 30 31 31 31 31 30 29 29 31 33 34 33 32 32 31 31 30 29 29 29 28 27 24 23 23 23 23 23 22 21 22 22 21 19 18 18 18 17 16 14 13 12 11 10 9 8 8 7 7 7 7 8 7 7 8 8 8 8 8 8 8 8 9 9 9 9 8 7 7 5 5 3
18 20 20 20 20 19 18 21 23 25 27 29 30 31 32 32 32 33 33 31 29 29 32 33 33 33 33 34 33 32 31 30 30 29 28 26 25 24 25 25 25 24 22 23 23 22 21 20 19 19 19 17 16 14 13 12 11 10 9 9 8 8 8 7 8 7 7 8 8 8 8 8 8 8 8 8 8 8 9 8 7 6 4 4 3
21 21 22 23 23 22 20 20 21 24 26 28 30 31 32 33 33 34 34 33 31 30 30 31 32 33 34 35 34 34 33 32 32 30 28 28 26 26 27 27 27 25 24 24 24 23 22 21 21 21 20 18 17 16 15 14 13 11 10 10 9 9 8 8 8 8 7 7 8 8 8 8 8 8 8 8 8 8 8 8 7 6 5 5 4
23 24 25 26 26 25 25 22 21 21 24 27 29 31 32 33 34 34 34 34 33 31 31 30 30 32 34 35 35 35 35 34 34 32 30 28 27 27 28 28 28 27 25 25 25 25 23 22 22 22 21 19 18 17 16 15 14 13 12 11 11 10 9 8 8 8 7 7 8 8 8 9 9 9 9 9 9 8 8 8 6 5 4 4 2
23 23 24 26 26 26 27 25 23 21 22 24 27 29 31 32 33 33 33 34 34 33 32 31 31 32 34 34 35 35 35 35 35 34 32 29 27 28 29 29 30 29 27 26 27 26 23 23 24 23 21 20 20 19 17 17 16 14 14 13 12 11 10 9 9 8 8 7 8 8 9 9 9 9 9 9 9 9 9 8 7 5 5 4 3
21 22 22 23 25 26 26 26 25 23 22 22 24 26 28 30 32 33 33 33 34 34 34 33 33 34 34 34 34 35 35 35 35 35 33 30 28 28 29 31 31 30 29 27 27 27 25 24 25 24 23 22 21 20 19 18 17 16 15 14 13 12 11 10 9 9 8 8 8 8 8 9 9 10 10 9 9 9 9 9 9 8 8 6 5
20 20 21 21 22 23 24 25 25 25 25 23 23 24 26 28 30 32 33 33 33 34 34 34 35 35 35 35 35 34 35 35 36 35 34 30 29 29 31 31 32 32 30 29 27 27 26 26 27 26 25 25 24 22 21 20 19 18 17 16 15 13 12 11 10 9 9 8 8 8 8 9 9 10 10 10 10 10 10 10 10 9 9 9 9
18 18 19 21 20 19 19 22 23 24 25 24 24 24 25 27 29 30 32 32 33 34 34 34 35 36 36 36 36 35 35 35 36 36 33 30 29 31 32 32 32 32 32 31 28 27 28 28 28 27 27 26 25 24 23 22 21 19 18 17 16 15 14 13 11 10 10 9 8 9 9 9 10 10 10 11 11 10 10 10 9 9 10 11 12
15 15 15 17 19 17 15 17 19 21 22 23 24 24 25 26 27 29 30 31 32 33 33 33 34 35 36 37 37 36 36 37 37 37 34 31 30 32 33 33 33 33 33 32 30 29 29 30 29 28 28 27 27 26 25 24 23 21 20 19 18 17 16 14 12 11 11 10 10 10 10 10 10 10 11 11 11 11 11 10 9 8 10 12 14
10 10 10 11 14 15 14 13 14 16 18 20 21 22 23 25 26 27 28 30 31 31 32 32 33 34 35 36 37 37 37 38 38 38 37 34 33 34 35 34 34 34 34 34 32 31 31 31 30 30 29 28 28 27 27 27 25 24 22 21 21 19 17 15 13 13 12 11 11 11 11 11 11 10 12 12 11 12 12 11 10 9 10 11 13
12 10 9 8 9 11 11 11 11 11 13 16 18 20 21 23 24 24 25 27 28 29 30 30 31 32 34 35 36 37 37 38 38 38 38 37 35 35 36 35 35 35 35 34 34 33 32 32 32 31 30 29 30 29 29 29 27 26 24 23 22 20 19 17 16 15 14 13 12 12 13 12 12 13 13 11 11 12 12 12 11 10 11 11 12
11 9 8 7 7 8 9 8 9 9 9 11 14 16 18 21 22 23 23 24 26 26 27 28 29 29 31 34 35 35 36 36 37 38 39 38 37 36 36 36 37 37 36 35 35 35 34 34 33 32 31 31 32 31 31 30 29 27 25 24 23 22 21 20 18 17 15 15 14 14 14 13 13 14 14 12 12 13 13 12 12 11 10 11 12
5 5 5 6 7 7 8 6 5 6 6 8 11 12 13 16 18 20 22 22 24 25 25 26 27 27 29 31 33 33 34 34 35 37 38 38 37 37 37 37 38 39 37 36 37 37 37 36 35 34 33 33 33 32 32 31 30 29 27 26 25 25 24 22 21 19 18 18 16 16 15 15 15 15 15 15 14 14 14 14 12 11 11 11 12
1 2 4 5 5 4 2 1 1 1 2 3 6 7 7 9 12 15 17 19 21 23 24 25 26 27 28 30 31 32 32 32 33 34 36 37 37 37 37 38 39 40 40 39 39 38 38 38 36 35 35 35 34 34 33 33 32 31 29 28 27 26 26 25 22 20 21 20 18 17 17 17 17 16 16 17 16 15 15 15 14 12 12 12 12
6 5 5 5 6 7 5 4 4 4 3 2 2 3 3 4 6 8 11 13 15 18 20 22 23 25 27 29 31 32 32 32 32 33 34 34 35 36 37 38 40 41 41 40 39 38 38 38 38 37 37 37 37 37 36 35 34 33 32 31 29 28 28 26 24 23 24 22 20 20 20 20 18 17 17 17 17 16 16 16 15 14 13 13 13
14 11 9 8 7 7 7 7 6 6 5 3 2 2 1 1 2 4 6 7 9 12 13 15 17 20 23 25 28 29 30 31 31 32 32 33 34 35 37 38 40 41 41 40 40 38 38 39 39 39 39 39 39 39 38 37 37 36 33 31 30 30 30 29 27 26 26 25 23 23 23 22 19 18 19 18 17 17 17 17 17 15 14 14 15
21 19 16 13 10 9 8 7 7 6 6 6 4 3 2 2 2 3 4 4 6 9 10 12 13 14 16 19 21 23 24 26 27 28 30 31 32 33 35 36 38 40 40 40 41 40 40 40 40 40 40 40 39 39 40 39 38 35 32 31 30 29 29 30 30 30 29 27 26 26 25 24 22 20 20 19 18 18 18 18 17 15 15 15 15
26 26 24 21 18 16 14 11 8 6 5 5 4 3 2 2 2 2 3 4 6 9 9 11 12 12 14 15 16 16 18 19 20 22 24 25 27 30 32 34 37 39 39 39 41 41 41 41 41 41 41 41 41 41 41 40 39 36 33 29 26 23 25 29 31 31 30 29 29 29 28 26 24 22 21 20 19 19 19 18 17 16 16 16 15
30 30 29 27 25 24 23 21 18 14 11 8 5 5 4 3 3 2 1 0 2 5 7 8 9 9 11 11 12 12 13 13 14 15 17 19 21 24 27 31 34 37 38 39 40 41 41 42 42 42 43 43 43 43 42 41 41 40 37 31 24 21 26 29 27 27 28 29 29 29 29 28 26 24 22 21 20 19 19 19 18 18 18 17 17
31 31 31 29 29 29 28 27 26 24 21 17 15 14 13 10 8 6 4 3 4 4 6 8 9 10 11 11 11 11 11 11 12 12 12 13 15 18 22 26 30 34 36 38 39 40 41 42 43 43 44 44 44 45 44 43 42 42 41 39 33 29 29 27 24 22 24 26 27 27 28 28 26 25 23 22 22 20 19 19 20 19 19 19 18
30 30 30 30 30 30 30 29 29 28 28 25 23 24 23 19 16 12 9 6 5 3 2 6 8 9 10 11 11 11 11 10 11 11 11 11 12 13 16 20 25 30 34 36 38 39 40 41 42 43 43 43 44 46 46 45 44 43 42 42 42 38 34 30 27 24 21 23 25 25 25 25 25 24 23 23 23 21 20 20 21 21 21 21 20
28 28 28 29 30 30 30 30 29 30 30 28 28 28 28 26 23 19 15 12 9 6 3 4 7 8 9 10 10 10 10 9 9 9 10 10 10 10 11 14 18 24 29 33 35 37 38 40 41 42 43 43 45 46 46 46 46 46 44 43 43 42 40 37 34 30 25 24 24 23 24 24 23 23 23 23 23 22 22 21 22 22 22 22 21
28 28 28 29 28 29 29 28 29 30 29 29 29 29 29 28 26 23 20 17 14 11 9 6 7 8 10 11 11 11 11 10 9 8 8 9 9 9 9 10 12 16 22 28 32 34 36 38 40 41 42 43 44 45 46 47 48 48 46 45 44 43 42 39 36 34 31 28 26 26 25 25 25 25 24 24 24 24 23 22 22 23 23 24 23
27 26 27 27 27 27 26 27 28 28 27 27 27 27 27 27 26 25 23 22 20 17 15 12 10 9 9 10 12 13 13 13 12 10 8 8 9 9 9 9 10 12 15 20 26 30 33 36 38 40 42 43 43 44 46 47 48 48 47 46 45 45 43 41 38 37 35 33 31 30 29 28 29 29 26 25 25 26 25 24 24 24 25 25 24
24 23 24 24 24 24 24 24 24 24 25 24 25 26 26 26 26 24 23 23 22 22 20 19 17 15 13 12 12 12 13 14 16 15 13 11 10 9 9 9 9 11 12 15 19 23 28 32 35 39 41 42 43 43 45 46 47 48 48 48 47 47 46 45 43 42 41 39 35 33 33 32 31 30 27 25 25 26 26 25 25 25 25 25 25
Wind_Direction
227 208 199 202 205 207 205 200 199 199 196 195 196 194 194 194 195 194 192 193 190 189 189 189 183 179 169 159 158 159 163 169 172 174 176 157 134 110 88 70 51 51 56 52 48 39 44 51 45 49 63 54 45 55 65 72 73 69 67 65 65 63 64 64 64 62 63 71 77 78 62 53 53 54 60 68 74 74 70 62 60 65 71 91 91
245 218 200 203 204 207 209 205 204 204 203 201 201 197 197 195 194 192 188 187 182 178 175 178 177 176 175 169 172 177 182 187 196 209 219 216 187 155 129 85 63 64 69 64 62 52 59 93 99 116 115 23 26 48 64 75 77 69 63 58 56 58 60 63 65 66 65 69 74 72 57 50 47 43 47 55 65 65 65 68 67 62 59 75 80
256 234 204 206 205 207 211 209 208 207 209 208 209 204 200 196 192 190 185 181 178 176 175 180 181 184 186 185 191 199 208 218 232 241 246 247 234 214 184 108 84 77 73 68 84 113 129 143 181 219 238 323 10 43 69 87 87 66 56 47 45 52 54 60 65 67 67 66 66 59 44 36 41 37 28 31 45 49 51 55 60 60 57 65 70
272 246 209 210 207 208 212 211 210 210 212 212 214 212 208 201 194 192 186 183 182 182 183 185 187 191 195 199 208 214 224 233 245 250 252 253 240 235 219 168 105 91 87 109 139 155 171 186 226 248 261 298 339 31 94 110 88 55 36 19 17 34 44 54 63 67 70 69 62 56 39 16 19 33 20 15 24 31 38 41 46 49 50 50 49
279 264 216 213 211 210 213 213 212 212 215 214 216 215 213 206 199 195 191 191 191 192 191 190 193 196 199 204 214 219 228 236 242 240 243 244 233 235 233 212 141 124 141 176 177 174 194 227 255 273 273 289 311 284 227 218 273 10 355 343 333 321 320 340 60 82 85 85 72 52 29 359 358 19 24 18 16 13 15 29 36 36 41 46 44
271 280 226 216 216 215 215 215 214 214 217 217 217 216 214 208 202 200 198 200 200 202 200 200 203 204 204 204 212 221 230 235 228 225 230 231 224 235 239 221 170 161 179 195 192 192 220 255 274 272 257 265 278 269 262 261 270 293 314 319 314 304 292 279 258 181 131 125 107 71 355 325 342 355 18 15 5 6 5 5 12 20 27 43 54
253 275 242 219 220 220 218 218 218 217 217 219 220 218 217 212 208 207 206 207 207 208 208 209 210 210 210 210 216 224 225 225 221 222 222 217 224 233 225 201 188 188 198 206 206 220 247 271 279 263 248 249 260 267 267 269 272 281 295 304 305 299 288 275 261 239 205 182 146 122 243 280 291 298 344 344 331 340 348 342 338 343 340 360 36
239 255 252 225 222 223 222 222 222 221 218 220 222 221 220 218 214 214 213 213 214 212 214 215 215 213 215 222 224 219 216 218 221 222 216 217 231 224 211 195 191 198 209 214 221 245 266 274 278 270 254 250 255 262 266 269 272 278 288 295 296 292 285 274 260 245 230 216 187 163 188 241 258 256 286 292 280 288 300 307 314 319 307 311 336
235 242 248 233 226 225 223 225 227 226 222 221 223 223 222 222 220 219 218 218 219 218 219 221 217 215 218 227 223 216 216 216 219 221 219 225 235 213 201 194 195 204 216 228 240 257 267 271 276 275 266 258 256 261 267 271 274 279 286 291 290 285 278 268 256 245 238 228 212 188 192 225 246 247 244 259 255 256 264 281 294 298 299 302 298
234 237 242 238 230 227 224 225 228 229 228 225 225 225 223 224 224 222 222 221 223 223 223 223 220 218 219 221 216 216 219 217 217 222 229 240 243 223 210 204 203 211 222 238 252 263 269 271 275 278 274 266 264 267 270 273 276 281 287 288 286 279 269 259 250 244 241 234 218 191 199 229 240 241 236 237 235 245 254 262 271 281 301 304 293
234 231 238 239 233 230 227 226 227 230 230 230 228 227 226 224 224 224 225 224 225 226 224 223 222 221 217 214 212 215 221 221 222 231 242 250 252 244 234 228 223 225 231 241 254 266 273 276 279 277 271 265 266 269 272 275 279 283 286 285 281 274 261 248 241 240 239 232 214 190 198 224 231 234 235 233 233 244 255 257 265 280 297 290 281
238 229 232 238 236 231 230 230 229 230 231 232 232 231 230 227 226 225 226 225 225 227 226 224 222 220 212 210 212 216 221 224 229 242 252 259 260 257 249 244 243 241 242 245 252 263 270 274 278 271 262 259 261 268 274 277 278 276 273 269 266 263 258 245 230 227 224 214 204 196 202 220 229 234 240 240 240 247 255 255 252 248 248 260 272
241 231 233 238 238 234 232 231 229 232 233 232 233 232 233 232 231 230 230 230 228 229 229 227 224 218 211 208 212 217 222 227 234 247 256 261 262 260 254 249 249 251 252 252 251 255 262 268 271 263 256 254 258 268 272 266 256 250 244 248 253 253 254 250 241 219 203 199 199 203 208 220 231 237 242 247 250 253 254 250 235 224 233 247 261
241 236 237 240 239 238 235 233 230 230 233 234 235 234 233 234 235 235 235 236 233 232 230 228 223 214 211 210 212 219 225 230 239 250 259 262 263 263 256 249 247 249 253 255 251 249 252 261 265 256 249 245 242 242 227 223 227 236 242 249 251 252 255 252 250 236 216 207 205 213 217 223 235 243 249 256 261 260 256 250 242 238 239 242 250
244 240 238 242 240 240 240 237 232 230 232 234 236 235 234 235 237 238 236 237 235 231 228 226 219 208 209 213 214 222 228 233 243 256 263 264 266 262 251 244 243 244 247 248 246 246 248 253 253 239 227 212 196 193 196 211 225 240 249 253 259 257 259 257 254 249 238 230 223 223 222 224 233 245 254 261 265 266 263 259 254 251 251 253 255
251 243 239 243 241 240 241 241 237 233 233 234 237 235 234 235 236 237 234 234 232 228 225 223 216 205 207 215 218 225 231 237 247 258 264 266 268 258 242 241 240 237 238 237 235 233 233 236 227 207 191 184 185 195 206 218 226 236 247 253 263 263 262 262 260 256 248 244 245 243 236 232 235 244 253 262 271 277 277 272 266 260 258 257 257
261 251 243 244 243 241 237 239 239 236 235 235 237 235 234 235 236 236 233 231 230 228 224 221 215 207 208 215 222 228 235 243 251 258 262 264 265 256 243 242 239 231 228 226 223 216 213 210 198 184 180 187 195 205 211 217 225 231 243 249 256 260 260 260 258 252 247 249 256 258 249 246 247 252 258 266 277 286 288 285 280 274 267 263 263
264 259 251 245 244 243 238 236 237 237 238 237 237 235 234 234 235 235 232 231 230 229 225 220 215 211 213 218 225 231 240 249 255 259 261 259 255 251 244 241 238 231 226 221 216 209 202 195 185 181 186 193 198 201 206 210 220 229 236 242 246 249 251 252 251 248 248 252 256 253 245 247 249 254 261 268 278 285 289 289 286 286 285 284 285
263 261 257 250 246 246 245 240 236 236 238 239 239 237 235 233 234 234 233 231 231 231 226 220 217 217 220 225 230 235 243 250 256 260 259 252 245 242 241 241 237 232 229 223 216 208 199 192 186 188 194 198 200 200 204 211 222 231 236 241 243 244 246 246 247 247 250 254 255 250 249 251 252 254 260 265 273 280 285 288 288 291 293 297 300
266 262 258 254 251 248 249 248 243 239 237 239 240 239 237 234 234 234 234 233 232 231 227 223 220 221 225 230 235 239 244 250 255 259 258 251 242 235 235 238 235 230 229 224 218 210 203 198 194 199 203 205 207 208 213 223 233 241 247 251 254 255 256 254 254 254 258 261 258 258 257 259 260 261 264 268 273 279 285 291 294 298 300 303 305
272 268 262 257 254 251 251 254 252 247 242 240 240 240 238 236 234 233 233 233 233 231 229 227 226 227 229 233 237 241 246 249 253 255 255 250 241 232 230 234 234 231 228 223 218 211 207 204 202 205 209 211 212 216 222 232 241 247 251 253 256 258 259 261 262 262 266 272 269 269 270 268 269 269 270 273 278 285 290 296 301 304 306 308 308
276 272 267 262 259 256 253 254 256 255 251 246 243 241 239 237 235 233 232 231 232 232 231 231 232 232 233 236 240 243 246 248 250 251 251 248 240 232 228 231 233 232 227 223 219 214 210 208 207 207 210 213 214 219 225 233 239 242 246 249 251 253 254 255 257 261 265 270 271 273 275 276 277 276 276 276 281 288 295 300 303 305 307 309 311
276 273 271 268 264 259 255 255 256 257 256 252 248 245 241 238 235 235 233 231 230 231 232 233 234 235 236 238 241 244 247 248 249 248 248 245 240 234 228 228 231 231 226 223 220 216 213 211 210 210 213 216 217 221 227 232 236 238 241 243 245 247 249 251 252 255 257 260 264 268 272 275 280 282 283 283 286 290 295 299 301 305 309 311 317
283 279 273 267 263 260 257 255 254 255 255 254 252 248 245 242 238 234 234 233 231 230 230 231 233 235 236 238 240 243 245 247 248 247 245 242 239 235 228 226 229 229 225 222 220 217 216 214 211 212 216 218 219 224 229 233 235 237 240 242 245 246 247 250 250 251 253 255 258 262 266 271 276 280 284 286 289 292 296 298 300 304 308 313 325
287 282 274 267 262 260 258 255 252 252 252 253 253 251 248 247 244 239 236 233 232 231 230 230 231 234 236 237 240 242 244 246 247 247 244 241 238 235 230 227 229 228 225 223 222 220 219 216 213 215 218 220 222 225 228 231 234 235 239 242 245 246 247 249 250 250 251 254 256 259 264 268 273 277 281 284 286 290 294 297 299 304 307 311 331
280 279 278 274 266 259 257 254 252 250 250 251 252 252 249 248 249 247 243 238 234 232 232 232 232 233 235 237 239 241 243 244 245 245 244 242 238 235 231 230 231 229 226 224 223 223 221 217 214 217 219 221 224 226 228 229 231 233 236 241 244 246 247 246 248 246 245 250 252 255 259 263 268 273 277 282 285 287 288 292 295 300 306 307 330
274 278 282 281 275 266 258 254 251 249 249 249 249 249 248 248 248 248 248 246 241 235 233 234 234 234 235 237 239 240 241 243 244 244 243 242 238 234 232 232 233 231 227 226 225 224 222 218 216 219 219 221 224 225 227 228 228 231 232 237 240 243 245 245 247 243 239 244 247 249 253 255 259 263 268 273 279 282 282 284 288 291 292 296 324
270 276 285 286 284 278 268 259 254 252 250 249 249 249 249 248 247 246 247 249 247 242 238 237 235 235 236 239 240 240 241 242 244 244 242 242 239 235 232 232 234 234 229 227 228 226 223 219 217 219 220 221 223 225 227 226 226 227 228 232 236 240 243 244 246 245 240 241 246 248 250 252 253 255 259 265 269 273 275 279 282 282 276 280 297
272 277 284 285 285 285 279 268 259 255 252 250 249 249 249 248 247 247 247 249 249 247 246 242 238 236 238 240 240 241 241 242 244 245 243 242 239 236 233 232 234 236 231 228 230 229 225 222 220 221 222 222 224 226 226 226 226 225 226 230 233 237 241 244 247 249 246 243 247 250 251 252 251 253 255 259 263 265 268 271 269 263 262 272 276
283 282 281 281 283 282 280 276 269 261 255 252 250 249 249 249 249 248 248 250 249 248 249 247 244 242 241 241 241 242 242 242 245 246 245 243 239 236 236 234 234 237 235 229 232 233 228 225 225 225 224 223 224 227 228 228 227 226 226 229 231 235 238 242 246 249 250 245 246 250 251 252 252 253 254 255 258 259 259 258 255 250 249 254 238
289 285 281 281 280 278 277 276 273 267 259 254 253 251 250 251 251 251 250 250 249 248 249 249 247 246 245 244 243 243 243 242 244 247 246 244 240 238 238 237 235 236 237 232 233 236 231 227 229 229 227 226 227 228 229 230 230 228 228 230 232 235 236 239 244 247 250 246 245 250 251 253 255 256 256 257 258 256 254 248 237 218 202 208 194
293 290 288 282 277 275 274 272 270 268 263 258 255 253 252 253 253 253 253 251 250 249 248 248 247 248 248 247 246 244 244 243 244 247 247 244 240 240 240 240 239 238 239 236 234 236 233 229 231 231 229 228 229 230 231 232 232 231 231 232 234 236 237 239 243 246 250 248 247 251 254 256 258 258 258 258 258 256 254 247 239 226 207 197 192
291 293 290 282 275 273 272 271 269 266 264 261 258 255 253 253 253 253 254 252 252 251 250 249 248 248 248 249 248 247 246 245 245 247 248 244 240 242 243 243 243 242 242 240 236 235 232 231 232 231 230 230 230 231 233 234 234 233 233 235 237 238 239 240 243 245 248 252 253 255 257 259 260 262 261 260 258 256 255 252 249 244 225 200 189
283 285 285 280 277 275 272 269 268 266 265 263 260 257 254 252 251 252 253 252 252 252 251 250 249 247 248 248 249 249 249 248 247 248 247 245 243 243 244 244 244 244 244 243 240 236 234 233 234 234 233 233 233 233 235 236 236 236 236 236 239 240 241 242 243 245 248 254 258 260 262 263 265 265 265 264 262 260 259 257 252 244 232 214 207
281 281 278 277 277 278 276 270 267 267 266 265 262 260 257 254 251 250 250 251 251 251 251 250 249 247 247 247 248 249 250 249 249 250 248 248 248 246 246 246 245 245 245 245 243 240 236 236 237 236 235 235 235 235 236 237 237 237 237 238 241 241 243 245 245 247 251 257 262 266 268 268 270 269 267 266 265 264 260 257 249 237 232 230 230
282 280 271 272 274 276 278 274 270 268 267 266 263 260 257 254 251 248 248 249 249 249 249 249 249 248 247 247 248 249 249 249 250 250 250 251 252 250 248 248 247 247 246 245 244 242 239 237 238 238 237 237 237 236 236 238 238 238 237 238 242 243 245 247 248 250 253 257 260 265 269 273 275 269 266 268 266 263 260 255 248 236 230 232 237
269 270 266 261 268 275 277 274 273 273 269 266 263 258 255 252 250 248 248 247 248 248 249 249 248 247 247 248 249 248 248 249 249 251 252 253 253 252 251 249 249 249 247 246 244 243 241 239 238 238 238 238 238 238 237 238 239 239 238 240 243 245 247 249 249 250 252 255 260 263 268 273 273 270 272 273 268 264 261 256 248 240 233 231 235
257 256 248 237 240 256 265 268 272 276 272 266 263 258 252 250 248 247 247 246 246 247 247 246 246 245 246 248 250 249 249 249 249 252 253 253 253 252 252 250 249 249 248 247 246 244 242 240 239 239 239 239 240 239 239 241 242 242 241 242 244 245 247 249 250 251 252 255 259 262 267 270 268 272 277 274 268 265 262 257 251 245 239 237 240
251 233 215 215 216 228 249 262 272 276 272 264 263 260 255 250 249 248 247 246 246 246 245 244 244 245 245 248 250 251 251 251 251 252 253 253 252 252 252 251 250 249 249 248 246 244 242 240 239 238 239 240 241 241 241 242 243 243 243 243 244 244 247 250 251 250 251 255 258 261 265 266 266 271 274 273 269 264 261 258 253 248 244 242 244
73 162 170 179 169 166 219 287 14 304 294 279 274 277 274 263 258 255 252 249 248 247 247 245 245 245 246 248 250 252 253 253 253 254 254 254 254 254 254 253 251 249 248 247 247 246 245 243 241 239 239 239 239 239 239 240 241 242 242 243 244 245 248 250 250 250 251 254 257 261 263 262 265 268 270 271 270 265 260 258 255 249 247 246 247
78 87 113 129 132 127 107 67 70 83 76 37 352 343 329 304 291 281 273 267 261 257 254 252 250 249 249 250 252 254 256 257 257 257 256 256 257 256 255 254 253 252 250 250 249 249 248 247 244 241 240 239 238 237 237 238 238 238 239 241 242 244 247 247 247 249 252 255 255 258 260 261 263 266 267 269 268 266 261 259 256 251 249 250 250
71 72 76 83 97 113 104 83 79 94 108 114 88 67 56 345 316 303 296 287 277 273 269 265 260 256 255 256 257 260 262 264 264 263 262 261 259 258 256 256 256 255 254 252 251 249 248 247 245 241 240 240 240 240 239 237 236 237 239 240 240 241 243 244 246 248 250 252 255 256 258 261 263 263 265 266 265 264 261 259 258 252 249 250 252
68 69 69 70 76 87 91 92 96 105 123 140 151 147 152 176 186 225 260 267 266 275 282 282 280 276 271 268 268 270 271 270 270 269 267 265 262 260 259 259 258 257 256 254 252 250 249 248 246 244 242 240 239 240 241 241 239 238 236 237 239 239 241 242 244 248 249 251 254 255 257 259 261 262 263 264 263 262 261 259 256 253 250 250 253
67 66 65 65 65 65 61 63 66 65 85 119 147 145 139 148 153 204 245 257 265 279 289 290 289 290 287 284 283 282 280 279 277 274 272 269 267 264 262 260 259 258 257 256 254 252 250 249 248 247 244 241 238 238 240 241 240 237 232 231 234 236 239 243 245 246 247 250 252 254 256 258 259 261 261 260 260 260 259 256 253 251 251 251 253
64 63 63 62 62 61 58 56 54 49 51 58 60 55 57 67 85 107 126 233 304 317 319 308 302 303 303 301 300 297 295 293 289 283 279 275 271 267 264 262 261 260 258 257 256 255 253 251 250 248 246 244 242 242 241 241 241 241 238 233 230 231 238 244 246 244 245 247 250 252 255 257 258 259 258 257 257 257 256 253 250 250 251 253 255
62 62 62 62 62 62 61 59 58 55 55 54 50 45 43 41 43 50 52 55 54 28 356 332 323 321 321 323 320 315 313 311 307 302 294 286 278 272 266 263 262 261 259 258 257 257 255 253 252 250 248 247 246 242 241 243 243 241 239 239 239 242 246 245 240 240 243 244 246 249 251 253 254 254 254 253 254 256 254 251 250 250 251 254 257
64 64 63 62 60 60 59 58 58 57 56 55 52 50 48 45 41 41 40 42 56 58 355 321 321 324 325 329 331 326 324 322 318 315 309 304 295 284 274 266 262 261 260 259 258 257 257 256 255 252 251 249 246 242 242 244 242 239 239 241 242 243 247 246 241 240 242 243 245 246 247 249 249 249 249 249 253 256 254 250 249 250 251 254 258
68 65 63 60 58 56 56 56 55 54 53 52 49 47 45 44 42 40 38 35 34 31 16 333 328 334 334 336 338 334 333 334 332 326 320 314 307 299 288 275 266 262 260 260 259 259 259 258 256 253 251 249 246 244 245 245 243 242 242 241 240 240 242 244 246 246 247 249 249 246 246 246 245 245 244 246 252 256 255 252 251 251 252 255 258
67 64 62 59 57 55 54 53 50 49 49 47 45 43 41 40 38 37 35 33 30 24 19 6 345 342 341 341 341 341 339 337 339 339 333 326 318 309 299 288 278 268 262 260 260 260 259 257 256 253 251 249 248 246 246 246 247 247 245 242 240 239 238 239 242 244 246 248 248 248 247 245 245 246 246 247 253 256 256 255 253 252 254 255 257
64 61 60 58 55 53 49 46 44 43 43 41 40 39 38 35 34 32 31 30 29 24 20 15 5 354 348 343 340 341 340 337 336 336 335 331 324 318 309 299 291 282 272 264 261 259 258 257 256 255 254 252 250 248 246 247 248 249 248 245 242 239 235 233 234 236 241 243 244 247 249 248 251 255 253 252 256 258 257 256 254 253 254 255 256
62 59 55 52 50 47 42 41 40 37 35 34 34 34 33 32 31 30 28 27 25 24 21 17 13 6 359 352 343 339 337 334 332 331 330 326 319 316 312 306 298 290 284 276 268 264 260 258 256 256 255 253 252 250 248 247 247 248 248 246 245 243 241 239 239 239 241 241 241 244 247 250 255 258 257 255 256 257 257 255 254 254 254 255 255